[[{"header":{"parameterUnit":"m.s-1","parameterCategory":1,"la1":30.2991,"la2":30.254,"lo1":-89.0895,"lo2":-89.0444,"dy":0.0017,"dx":0.0017,"nx":28,"ny":28,"refTime":"2023-10-04T21:00:00:Z","depth":0,"parameterNumber":2,"parameterNumberName":"U-component_of_WINDS"},"data":[0,0,0,0,0,0,0,0,0,0,0,0,0,0,0,0,0,0,0,0,0,0,0,0,0,0,0,0,0,0,0,0,0,0,0,0,0,0,0,0,0,0,0,0,0,0,0,0,0,0,0,0,0,0,0,0,0,0,-3.2473,-3.2472,0,-3.2419,-3.2418,-3.2418,-3.2229,-3.2225,-3.2221,-3.2217,-3.2166,-3.2169,-3.2171,0,0,0,0,0,0,0,0,0,0,0,0,0,-3.2417,-3.2419,-3.2473,-3.2472,-3.2471,-3.2419,-3.2418,-3.2417,-3.223,-3.2225,-3.222,-3.2215,-3.2165,-3.2168,-3.2171,0,0,0,0,0,0,0,0,0,0,0,0,0,-3.2411,-3.242,-3.2473,-3.2372,-3.2362,-3.2419,-3.2418,-3.2417,-3.2231,-3.2225,-3.2218,-3.2212,-3.2164,-3.2168,-3.2172,-3.2324,0,0,-3.2184,-3.2186,0,0,0,0,0,0,0,0,-3.2411,-3.2413,-3.2387,-3.2379,-3.2368,-3.2324,-3.238,-3.2386,-3.2233,-3.2281,-3.2217,-3.2209,-3.2224,-3.2223,-3.2227,-3.2322,-3.232,-3.2184,-3.2187,-3.2188,-3.2189,0,0,0,0,0,0,0,-3.2412,-3.2414,-3.2451,-3.2387,-3.2375,-3.233,-3.2322,-3.238,-3.2289,-3.2276,-3.2262,-3.2258,-3.2218,-3.2224,-3.2224,-3.2319,-3.2184,-3.2188,-3.219,-3.2192,-3.2536,-3.2542,0,0,0,0,0,0,-3.2426,-3.2416,-3.2453,-3.245,-3.2374,-3.2336,-3.2327,-3.2345,-3.2288,-3.2273,-3.2264,-3.225,-3.222,-3.222,-3.2222,-3.2396,-3.2188,-3.2192,-3.2194,-3.2529,-3.2537,-3.2544,0,0,0,0,0,0,-3.2426,-3.2431,-3.2455,-3.2429,-3.2428,-3.2344,-3.2365,-3.2347,-3.2352,-3.2279,-3.2262,-3.2286,-3.2215,-3.2216,-3.23,-3.2391,-3.2194,-3.2197,-3.2521,-3.2531,-3.2541,-3.2746,0,0,0,0,0,0,-3.2425,-3.2432,-3.2488,-3.2432,-3.2431,-3.2534,-3.2371,-3.2351,-3.2359,-3.234,-3.2295,-3.2282,-3.221,-3.2295,-3.2304,-3.2393,-3.22,-3.2512,-3.2526,-3.2538,-3.2731,-3.2762,-3.2789,0,0,0,0,0,-3.2424,-3.2549,-3.2492,-3.2498,-3.2499,-3.2539,-3.2539,-3.2453,-3.2367,-3.2424,-3.2376,-3.2283,-3.238,-3.2305,-3.2313,-3.2406,-3.2506,-3.2522,-3.2537,-3.2718,-3.2756,-3.2788,0,0,0,0,0,0,-3.2621,-3.254,-3.2476,-3.2587,-3.2571,-3.2507,-3.2576,-3.2496,-3.2505,-3.2487,-3.2381,-3.2373,-3.2472,-3.2446,-3.2364,-3.255,-3.2428,-3.2445,-3.2562,-3.2598,-3.2626,-3.263,-3.2204,0,0,0,0,0,-3.2677,-3.2715,-3.2643,-3.2748,-3.2743,-3.2662,-3.2676,-3.2611,-3.2591,-3.2584,-3.2542,-3.2528,-3.2555,-3.2575,-3.2596,-3.2726,-3.2714,-3.2794,-3.2823,-3.2847,-3.2864,-3.2931,-3.2965,-3.2595,-3.2594,-3.2594,0,0,-3.2794,-3.2754,-3.2785,-3.2787,-3.2767,-3.281,-3.2657,-3.2709,-3.2741,-3.2592,-3.2667,-3.2637,-3.2614,-3.2722,-3.2767,-3.2704,-3.2963,-3.2866,-3.2886,-3.2889,-3.295,-3.2985,-3.3017,-3.2605,-3.2603,-3.2601,0,0,-3.3028,-3.3003,-3.3086,-3.307,-3.3041,-3.2986,-3.3006,-3.2955,-3.2928,-3.3002,-3.2891,-3.2928,-3.2977,-3.2965,-3.2965,-3.3196,-3.3111,-3.3206,-3.3357,-3.3424,-3.3453,-3.3479,-3.3561,-3.3592,-3.3222,-3.3223,-3.3223,0,-3.3178,-3.3237,-3.314,-3.3199,-3.3203,-3.3069,-3.3154,-3.3143,-3.3124,-3.3131,-3.306,-3.3118,-3.3093,-3.3196,-3.3252,-3.3257,-3.3278,-3.321,-3.3457,-3.3481,-3.3503,-3.3581,-3.3612,-3.3235,-3.3233,-3.3232,-3.3231,0,-3.3422,-3.3465,-3.3536,-3.3519,-3.3531,-3.3603,-3.3519,-3.3543,-3.3477,-3.343,-3.3508,-3.3473,-3.3484,-3.3504,-3.3441,-3.3599,-3.356,-3.3475,-3.335,-3.3552,-3.3623,-3.3652,-3.3251,-3.3247,-3.3244,-3.3241,0,0,-3.3779,-3.3707,-3.3735,-3.3725,-3.3684,-3.3716,-3.3783,-3.3792,-3.3815,-3.3807,-3.386,-3.3905,-3.3825,-3.3826,-3.376,-3.3819,-3.4004,-3.3726,-3.3724,-3.3779,-3.4176,-3.4241,-3.4276,-3.3947,-3.3952,-3.3957,-3.4178,0,-3.4002,-3.4109,-3.4024,-3.4148,-3.4186,-3.406,-3.4117,-3.41,-3.4058,-3.4085,-3.4039,-3.4072,-3.3964,-3.3964,-3.4017,-3.3971,-3.4082,-3.3953,-3.3997,-3.4,-3.4007,-3.4313,-3.4381,-3.4592,-3.4205,-3.421,-3.4213,0,-3.4276,-3.4278,-3.4405,-3.4354,-3.4368,-3.4421,-3.4423,-3.4451,-3.4428,-3.4393,-3.4394,-3.4313,-3.4376,-3.4254,-3.4339,-3.4254,-3.4267,-3.4247,-3.4253,-3.4254,-3.4119,-3.4322,-3.4657,-3.4689,-3.4256,-3.4252,-3.4249,0,-3.4524,-3.4558,-3.4638,-3.4634,-3.4578,-3.4618,-3.4597,-3.4568,-3.4579,-3.4581,-3.4588,-3.4599,-3.4605,-3.4616,-3.454,-3.4458,-3.4636,-3.4507,-3.461,-3.4612,-3.4653,-3.4651,-3.4994,-3.4662,-3.4662,-3.4661,-3.466,0,-3.4781,-3.4864,-3.4748,-3.4798,-3.4887,-3.479,-3.4881,-3.4847,-3.4822,-3.4864,-3.4756,-3.4797,-3.4694,-3.4726,-3.4668,-3.4748,-3.4752,-3.4726,-3.471,-3.4736,-3.4739,-3.4743,-3.4726,-3.4669,-3.4667,-3.4666,-3.4664,0,-3.5073,-3.4999,-3.5078,-3.5018,-3.5004,-3.5073,-3.5022,-3.5066,-3.5016,-3.5071,-3.5078,-3.5001,-3.5032,-3.4958,-3.4979,-3.494,-3.5054,-3.5015,-3.5062,-3.505,-3.5156,-3.5148,-3.5513,-3.5557,-3.5198,-3.5202,-3.5205,0,-3.5242,-3.5302,-3.5248,-3.5267,-3.5251,-3.5284,-3.5294,-3.5201,-3.5216,-3.5195,-3.5242,-3.5264,-3.5277,-3.5334,-3.5281,-3.5297,-3.5257,-3.5384,-3.5258,-3.5283,-3.5258,-3.5256,-3.5261,-3.541,-3.5414,-3.5418,-3.5421,0,-3.5549,-3.5509,-3.5527,-3.5534,-3.5548,-3.5549,-3.5542,-3.5565,-3.5465,-3.5489,-3.5518,-3.5529,-3.5549,-3.5573,-3.5577,-3.5557,-3.5474,-3.5461,-3.5485,-3.5512,-3.5537,-3.5525,-3.5132,-3.5453,-3.5449,-3.5447,-3.5445,-3.5444,-3.5784,-3.5831,-3.5801,-3.5825,-3.5809,-3.5805,-3.5843,-3.5798,-3.5821,-3.5829,-3.5774,-3.5816,-3.5792,-3.5789,-3.5777,-3.581,-3.5752,-3.5788,-3.5797,-3.5807,-3.5825,-3.5532,-3.5811,-3.581,-3.5809,-3.5808,-3.5807,0,-3.6085,-3.6059,-3.6082,-3.6075,-3.6094,-3.6012,-3.6001,-3.6023,-3.6061,-3.6045,-3.6059,-3.6094,-3.6117,-3.6066,-3.6081,-3.6117,-3.608,-3.6125,-3.6121,-3.6118,-3.5875,-3.5852,-3.6155,-3.6155,-3.6155,-3.6155,-3.6155,-3.6154,-3.6245,-3.632,-3.6278,-3.6345,-3.6318,-3.6357,-3.6358,-3.6354,-3.6341,-3.6384,-3.6402,-3.6368,-3.6338,-3.635,-3.6368,-3.6353,-3.6363,-3.6422,-3.6394,-3.6169,-3.6135,-3.6102,-3.608,-3.6425,-3.6426,-3.6633,-3.6635,-3.6636]},{"header":{"parameterUnit":"m.s-1","parameterCategory":1,"la1":30.2991,"la2":30.254,"lo1":-89.0895,"lo2":-89.0444,"dy":0.0017,"dx":0.0017,"nx":28,"ny":28,"refTime":"2023-10-04T21:00:00:Z","depth":0,"parameterNumber":3,"parameterNumberName":"V-component_of_WINDS"},"data":[0,0,0,0,0,0,0,0,0,0,0,0,0,0,0,0,0,0,0,0,0,0,0,0,0,0,0,0,0,0,0,0,0,0,0,0,0,0,0,0,0,0,0,0,0,0,0,0,0,0,0,0,0,0,0,0,0,0,-0.4329,-0.4331,0,-0.4468,-0.4469,-0.4471,-0.4606,-0.4608,-0.461,-0.4611,-0.475,-0.4752,-0.4754,0,0,0,0,0,0,0,0,0,0,0,0,0,-0.4179,-0.4181,-0.4329,-0.4331,-0.4333,-0.4467,-0.4469,-0.4471,-0.4606,-0.4608,-0.461,-0.4612,-0.4749,-0.4752,-0.4754,0,0,0,0,0,0,0,0,0,0,0,0,0,-0.4273,-0.4182,-0.4329,-0.4416,-0.4425,-0.4467,-0.4469,-0.4472,-0.4605,-0.4608,-0.4611,-0.4613,-0.4749,-0.4751,-0.4755,-0.472,0,0,-0.4764,-0.4765,0,0,0,0,0,0,0,0,-0.4268,-0.4279,-0.4402,-0.441,-0.4421,-0.4522,-0.4468,-0.4555,-0.4605,-0.4537,-0.4611,-0.4614,-0.4672,-0.4681,-0.4701,-0.4727,-0.4733,-0.4764,-0.4766,-0.4767,-0.4768,0,0,0,0,0,0,0,-0.4261,-0.4274,-0.4384,-0.4403,-0.4415,-0.4448,-0.4464,-0.4485,-0.4588,-0.4543,-0.4553,-0.4568,-0.4678,-0.4698,-0.4706,-0.4735,-0.4764,-0.4767,-0.4769,-0.477,-0.4738,-0.4735,0,0,0,0,0,0,-0.4242,-0.4267,-0.438,-0.4388,-0.4349,-0.4448,-0.4466,-0.4487,-0.4588,-0.4606,-0.4565,-0.4574,-0.4692,-0.4702,-0.4711,-0.4677,-0.4767,-0.477,-0.4772,-0.4741,-0.4737,-0.4734,0,0,0,0,0,0,-0.4238,-0.4251,-0.4374,-0.4331,-0.4349,-0.4448,-0.447,-0.4488,-0.4509,-0.4605,-0.4624,-0.4568,-0.4694,-0.4707,-0.4717,-0.4683,-0.4772,-0.4774,-0.4744,-0.474,-0.4736,-0.4608,0,0,0,0,0,0,-0.4233,-0.4248,-0.4237,-0.4329,-0.4351,-0.4378,-0.4468,-0.4489,-0.4514,-0.4526,-0.4612,-0.4629,-0.4697,-0.4712,-0.472,-0.4689,-0.4777,-0.4747,-0.4742,-0.4737,-0.4615,-0.46,-0.4586,0,0,0,0,0,-0.4227,-0.4195,-0.4236,-0.4248,-0.4338,-0.4376,-0.4388,-0.4468,-0.4511,-0.45,-0.4561,-0.4626,-0.4686,-0.4712,-0.4722,-0.4692,-0.475,-0.4743,-0.4737,-0.4622,-0.4603,-0.4587,0,0,0,0,0,0,-0.4095,-0.4209,-0.4255,-0.4252,-0.4303,-0.4398,-0.4387,-0.4446,-0.4485,-0.4495,-0.4592,-0.461,-0.4609,-0.4652,-0.4678,-0.4663,-0.4727,-0.4722,-0.4635,-0.4618,-0.4604,-0.4592,-0.4779,0,0,0,0,0,-0.4066,-0.4087,-0.4185,-0.4173,-0.4196,-0.4287,-0.4306,-0.4364,-0.442,-0.4442,-0.4505,-0.4556,-0.4587,-0.4605,-0.4639,-0.4623,-0.4642,-0.4607,-0.4592,-0.458,-0.4575,-0.4568,-0.4553,-0.4715,-0.4715,-0.4715,0,0,-0.4005,-0.407,-0.4077,-0.4148,-0.4194,-0.4213,-0.4304,-0.4321,-0.4335,-0.4445,-0.4458,-0.4505,-0.457,-0.4566,-0.4568,-0.4602,-0.4535,-0.4572,-0.4562,-0.4563,-0.456,-0.4545,-0.4531,-0.471,-0.4711,-0.4712,0,0,-0.3903,-0.3955,-0.395,-0.3995,-0.4065,-0.4125,-0.4123,-0.421,-0.4246,-0.4261,-0.4343,-0.4362,-0.4413,-0.4455,-0.4483,-0.4397,-0.4458,-0.4406,-0.433,-0.4322,-0.4309,-0.4298,-0.4266,-0.4253,-0.4401,-0.44,-0.44,0,-0.3818,-0.3851,-0.394,-0.3951,-0.3979,-0.408,-0.4075,-0.4114,-0.419,-0.4207,-0.4245,-0.431,-0.4361,-0.4368,-0.4347,-0.4367,-0.4367,-0.4396,-0.4304,-0.4294,-0.4285,-0.4255,-0.4243,-0.4393,-0.4394,-0.4395,-0.4395,0,-0.3743,-0.3764,-0.3752,-0.3823,-0.3851,-0.3853,-0.3941,-0.3957,-0.4013,-0.4068,-0.4082,-0.4146,-0.4194,-0.4201,-0.4254,-0.4215,-0.4234,-0.4286,-0.4351,-0.4261,-0.4235,-0.4224,-0.4383,-0.4386,-0.4388,-0.439,0,0,-0.3561,-0.3682,-0.3675,-0.3709,-0.3793,-0.3811,-0.3818,-0.3866,-0.3877,-0.3927,-0.3934,-0.3975,-0.4024,-0.4056,-0.4115,-0.4109,-0.4035,-0.4163,-0.4166,-0.4135,-0.3993,-0.3951,-0.3937,-0.4076,-0.4074,-0.4073,-0.3987,0,-0.3472,-0.3492,-0.3571,-0.3566,-0.3587,-0.3683,-0.3689,-0.3741,-0.3793,-0.3817,-0.3876,-0.3902,-0.3966,-0.3985,-0.3984,-0.4044,-0.4007,-0.4052,-0.4082,-0.4082,-0.4061,-0.3923,-0.388,-0.3795,-0.3977,-0.3976,-0.3975,0,-0.3371,-0.3415,-0.3412,-0.3495,-0.3507,-0.351,-0.356,-0.3583,-0.3643,-0.3681,-0.3716,-0.3783,-0.3795,-0.3857,-0.3874,-0.3902,-0.392,-0.3951,-0.395,-0.3954,-0.4021,-0.3922,-0.3771,-0.3757,-0.3959,-0.3961,-0.3962,0,-0.3236,-0.3294,-0.33,-0.3326,-0.3423,-0.3424,-0.3464,-0.3528,-0.3551,-0.3594,-0.361,-0.3653,-0.3677,-0.3708,-0.3785,-0.3823,-0.3792,-0.3861,-0.3823,-0.3821,-0.381,-0.3809,-0.3657,-0.3824,-0.3825,-0.3825,-0.3825,0,-0.3128,-0.3122,-0.324,-0.3243,-0.3239,-0.3331,-0.3324,-0.3374,-0.3429,-0.3442,-0.3529,-0.354,-0.3641,-0.3663,-0.3723,-0.3727,-0.3737,-0.3767,-0.3783,-0.3759,-0.3754,-0.377,-0.3777,-0.3822,-0.3822,-0.3823,-0.3823,0,-0.2976,-0.3055,-0.3067,-0.3159,-0.3182,-0.3174,-0.3253,-0.3259,-0.3317,-0.3333,-0.3342,-0.3433,-0.3463,-0.3543,-0.3594,-0.3635,-0.3621,-0.3651,-0.36,-0.361,-0.3566,-0.3568,-0.3417,-0.3401,-0.3579,-0.3577,-0.3576,0,-0.29,-0.2898,-0.299,-0.3005,-0.3042,-0.3067,-0.3091,-0.3181,-0.3202,-0.3271,-0.3268,-0.3305,-0.334,-0.3384,-0.3453,-0.3493,-0.3523,-0.3468,-0.353,-0.3505,-0.352,-0.3518,-0.3518,-0.3453,-0.3451,-0.3449,-0.3448,0,-0.2758,-0.2797,-0.2829,-0.2874,-0.2901,-0.2941,-0.2986,-0.2993,-0.3094,-0.3114,-0.3146,-0.3173,-0.3225,-0.3261,-0.3311,-0.3352,-0.3415,-0.3428,-0.3421,-0.3394,-0.3364,-0.3378,-0.3561,-0.343,-0.3432,-0.3433,-0.3434,-0.3435,-0.2641,-0.2643,-0.2707,-0.274,-0.2783,-0.2822,-0.2832,-0.2892,-0.2921,-0.2971,-0.3022,-0.3048,-0.3108,-0.3182,-0.3219,-0.324,-0.3273,-0.3264,-0.3261,-0.3256,-0.3244,-0.3362,-0.325,-0.325,-0.3251,-0.3251,-0.3252,0,-0.2501,-0.2547,-0.2576,-0.2636,-0.2661,-0.2721,-0.2773,-0.279,-0.2812,-0.2863,-0.2896,-0.2932,-0.2967,-0.3039,-0.308,-0.3083,-0.3113,-0.3091,-0.309,-0.3098,-0.3213,-0.3214,-0.3065,-0.3066,-0.3066,-0.3066,-0.3066,-0.3066,-0.2431,-0.2437,-0.2483,-0.2511,-0.2558,-0.2585,-0.2609,-0.2646,-0.2687,-0.2724,-0.2753,-0.2801,-0.286,-0.2906,-0.294,-0.2961,-0.2971,-0.2938,-0.2967,-0.3073,-0.309,-0.3107,-0.3109,-0.294,-0.294,-0.2851,-0.285,-0.2849]}]]